Tracking 20232 objects as of 20-Jan-2020
HD Live streaming from Space Station
objects crossing your sky now

NOAA 16 DEB

Track NOAA 16 DEB now!
10-day predictions


NORAD ID: 41259
Int'l Code: 2000-055FK
Perigee: 705.8 km
Apogee: 844.7 km
Inclination: 98.8 °
Period: 100.2 minutes
Semi major axis: 7146 km
RCS: Unknown
Launch date: September 21, 2000
Source: United States (US)
Launch site: AIR FORCE WESTERN TEST RANGE (AFWTR)

Note: This is SATELLITE DEBRIS
aabbcc
Your satellite tracking list
Your tracking list is empty




NASA's NSSDC Master Catalog

Two Line Element Set (TLE):
1 41259U 00055FK  20019.20349697 +.00001949 +00000-0 +63730-3 0  9998
2 41259 098.8426 144.0621 0097239 309.6910 049.5731 14.37096942213916
Source of the keplerian elements: AFSPC